Location: Namasale
(1.5000°N, 32.6167°E)
Time: 19:24:47
(UTC+00:00)

SR - Pass Details

Date: 12 April 2021
Orbit: 573 x 882 km, 66.7° (Epoch: 13 May)

Event Time Altitude Azimuth Distance (km) Brightness Sun altitude
Rises 16:58:16 0° 352° (N) 3,297 ? -16.5°
Reaches altitude 10° 17:00:54 10° 359° (N) 2,321 ? -17.2°
Maximum altitude 17:05:52 41° 69° (ENE) 1,052 ? -18.4°
Enters shadow 17:06:58 36° 100° (E) 1,132 ? -18.7°
